M I D A S
Marine Information and Data Acquisition System
Tripno 1112 of the Zeeleeuw from 2006-06-08 04:42:34 to 2006-06-08 16:08:28
Back to CruiseResearch ActivitiesStationsMapUnderway DataData graphs

EquipmentUnitsComment
TimeDGPSUTC
LatitudeDGPSDM.mWGS84
LongitudeDGPSDM.mWGS84
HeadingGyrodeg 
SOGDGPSknotsSpeed over ground
COGDGPSdegCourse over ground
DepthEcho soundermeters200 kHz
Missing or incorrect values are displayed as -999
Navigation data collected by the RV Zeeleeuw from 2006-06-08 04:41:17 to 2006-06-08 16:13:21
                                                                                    Next 1000 lines
Time Latitude Longitude Heading SOG COG Depth
2006-06-08 04:41:27 51°13.602 2°56.094 110.4 1 288 4.5
2006-06-08 04:41:31 51°13.603 2°56.092 110.6 1.4 291 4.6
2006-06-08 04:41:36 51°13.603 2°56.088 111.4 1.8 289 4.8
2006-06-08 04:41:43 51°13.605 2°56.081 112.2 2.2 293 -999
2006-06-08 04:41:48 51°13.606 2°56.076 113 2.5 292 -999
2006-06-08 04:41:52 51°13.608 2°56.072 113.5 2.7 295 -999
2006-06-08 04:41:58 51°13.61 2°56.064 113.9 3 294 -999
2006-06-08 04:42:03 51°13.612 2°56.058 114 3.2 295 -999
2006-06-08 04:42:08 51°13.614 2°56.051 114.4 3.5 295 -999
2006-06-08 04:42:12 51°13.616 2°56.045 114.5 3.8 295 -999
2006-06-08 04:42:18 51°13.618 2°56.035 114.2 4 294 -999
2006-06-08 04:42:23 51°13.62 2°56.027 113.8 4.1 293 -999
2006-06-08 04:42:28 51°13.623 2°56.018 112.8 4.2 292 -999
2006-06-08 04:42:32 51°13.624 2°56.011 112.1 4.3 291 -999
2006-06-08 04:42:38 51°13.627 2°56 111.8 4.4 290 -999
2006-06-08 04:42:43 51°13.629 2°55.991 111.9 4.4 290 -999
2006-06-08 04:42:48 51°13.631 2°55.982 112.3 4.3 289 -999
2006-06-08 04:42:52 51°13.632 2°55.975 112.7 4.2 290 -999
2006-06-08 04:42:58 51°13.635 2°55.964 113.3 4.2 290 -999
2006-06-08 04:43:03 51°13.637 2°55.956 114.5 4.1 291 -999
2006-06-08 04:43:08 51°13.639 2°55.948 115.8 4 293 -999
2006-06-08 04:43:12 51°13.641 2°55.941 117.4 4 293 -999
2006-06-08 04:43:18 51°13.643 2°55.932 118.7 4 295 -999
2006-06-08 04:43:23 51°13.646 2°55.924 120 4 296 -999
2006-06-08 04:43:28 51°13.648 2°55.916 121.3 4 298 4.7
2006-06-08 04:43:33 51°13.651 2°55.909 122.7 4 299 -999
2006-06-08 04:43:38 51°13.654 2°55.901 123.9 3.9 300 -999
2006-06-08 04:43:43 51°13.656 2°55.894 124.7 3.8 300 -999
2006-06-08 04:43:48 51°13.659 2°55.887 125.4 3.8 301 -999
2006-06-08 04:43:53 51°13.662 2°55.88 126 3.8 302 -999
2006-06-08 04:43:58 51°13.665 2°55.873 126.6 3.9 303 -999
2006-06-08 04:44:02 51°13.668 2°55.867 127.1 3.9 304 -999
2006-06-08 04:44:08 51°13.671 2°55.859 127.7 3.9 305 -999
2006-06-08 04:44:13 51°13.674 2°55.851 127.9 3.9 305 -999
2006-06-08 04:44:18 51°13.677 2°55.844 128.2 3.9 306 -999
2006-06-08 04:44:23 51°13.681 2°55.837 128.4 3.9 306 -999
2006-06-08 04:44:28 51°13.684 2°55.83 128.4 4.1 307 -999
2006-06-08 04:44:32 51°13.687 2°55.824 128.3 4.2 307 -999
2006-06-08 04:44:38 51°13.691 2°55.815 128 4.3 306 -999
2006-06-08 04:44:43 51°13.694 2°55.808 127.4 4.1 306 -999
2006-06-08 04:44:48 51°13.697 2°55.801 126.9 3.8 306 -999
2006-06-08 04:44:52 51°13.7 2°55.796 126.1 3.7 306 -999
2006-06-08 04:44:58 51°13.703 2°55.789 125.5 3.5 305 -999
2006-06-08 04:45:03 51°13.706 2°55.782 124.9 3.3 305 -999
2006-06-08 04:45:07 51°13.707 2°55.778 124.5 3.1 303 4.8
2006-06-08 04:45:12 51°13.71 2°55.773 124 2.8 304 10.5
2006-06-08 04:45:17 51°13.711 2°55.769 123.2 2.5 303 10.5
2006-06-08 04:45:22 51°13.713 2°55.765 121.9 2.1 305 10.8
2006-06-08 04:45:27 51°13.714 2°55.763 120.6 1.6 302 10.9
2006-06-08 04:45:32 51°13.715 2°55.762 118.3 0.8 318 11.1
2006-06-08 04:45:37 51°13.715 2°55.762 114.7 0.4 348 11
2006-06-08 04:45:42 51°13.715 2°55.764 109.9 0.7 69 10.9
2006-06-08 04:45:47 51°13.716 2°55.767 103.7 1.3 83 11
2006-06-08 04:45:52 51°13.716 2°55.77 96.5 1.5 82 11
2006-06-08 04:45:57 51°13.717 2°55.773 89.1 1.5 77 10.8
2006-06-08 04:46:02 51°13.717 2°55.776 83.3 1.4 75 10.8
2006-06-08 04:46:07 51°13.718 2°55.779 79.8 1.2 69 10.8
2006-06-08 04:46:12 51°13.718 2°55.781 77 1 70 10.8
2006-06-08 04:46:16 51°13.719 2°55.781 74.2 0.5 62 10.8
2006-06-08 04:46:22 51°13.719 2°55.782 71.4 0.3 60 10.8
2006-06-08 04:46:27 51°13.718 2°55.781 68.7 0.3 250 10.8
2006-06-08 04:46:32 51°13.718 2°55.779 66.6 0.6 244 10.8
2006-06-08 04:46:37 51°13.717 2°55.777 64.8 1.1 244 10.8
2006-06-08 04:46:42 51°13.716 2°55.775 63.5 1.4 242 10.8
2006-06-08 04:46:47 51°13.715 2°55.772 62.4 1.5 240 4.6
2006-06-08 04:46:53 51°13.714 2°55.768 61.1 1.6 241 -999
2006-06-08 04:46:58 51°13.712 2°55.764 60.1 1.9 240 -999
2006-06-08 04:47:03 51°13.711 2°55.761 59.1 1.8 239 -999
2006-06-08 04:47:08 51°13.71 2°55.758 58.5 1.7 238 -999
2006-06-08 04:47:12 51°13.709 2°55.755 58.1 1.7 239 -999
2006-06-08 04:47:18 51°13.708 2°55.752 58 1.5 241 -999
2006-06-08 04:47:23 51°13.707 2°55.749 58 1.3 241 -999
2006-06-08 04:47:28 51°13.706 2°55.748 57.4 1 246 -999
2006-06-08 04:47:32 51°13.706 2°55.746 56.4 0.7 245 -999
2006-06-08 04:47:37 51°13.706 2°55.746 54.5 0.5 262 10.9
2006-06-08 04:47:43 51°13.706 2°55.745 52.7 0.4 263 10.9
2006-06-08 04:47:47 51°13.706 2°55.745 50.7 0.3 328 10.9
2006-06-08 04:47:52 51°13.707 2°55.745 47.9 0.4 359 10.9
2006-06-08 04:47:56 51°13.707 2°55.745 44.7 0.5 9 10.9
2006-06-08 04:48:02 51°13.709 2°55.745 41.3 0.7 16 11
2006-06-08 04:48:07 51°13.71 2°55.746 37.7 0.9 16 11
2006-06-08 04:48:12 51°13.711 2°55.747 33.7 1 17 11.1
2006-06-08 04:48:17 51°13.713 2°55.747 29.6 1.2 15 11.1
2006-06-08 04:48:22 51°13.714 2°55.748 25.4 1.3 15 11.1
2006-06-08 04:48:27 51°13.716 2°55.749 21.1 1.4 9 11.1
2006-06-08 04:48:32 51°13.718 2°55.749 16.7 1.6 7 11
2006-06-08 04:48:36 51°13.72 2°55.749 12.2 1.7 2 4.9
2006-06-08 04:48:42 51°13.723 2°55.749 7.2 1.9 358 10.9
2006-06-08 04:48:47 51°13.726 2°55.748 1.8 2 353 10.7
2006-06-08 04:48:52 51°13.729 2°55.747 356.3 2.2 347 10.5
2006-06-08 04:48:56 51°13.732 2°55.746 350.4 2.5 340 10.4
2006-06-08 04:49:02 51°13.736 2°55.743 343.9 2.7 336 10
2006-06-08 04:49:07 51°13.74 2°55.739 337 3 331 9.3
2006-06-08 04:49:12 51°13.744 2°55.734 330.9 3.4 326 9.2
2006-06-08 04:49:17 51°13.748 2°55.729 327.5 3.8 326 8.9
2006-06-08 04:49:21 51°13.752 2°55.724 325.7 4.4 322 8.6
2006-06-08 04:49:27 51°13.759 2°55.716 325.3 4.9 324 8.6
2006-06-08 04:49:32 51°13.765 2°55.709 325.3 5.3 321 8.8
2006-06-08 04:49:38 51°13.772 2°55.7 325.2 5.7 323 8.9
2006-06-08 04:49:42 51°13.777 2°55.693 325.2 6 322 8.9
2006-06-08 04:49:45 51°13.782 2°55.688 325.2 6.3 325 9
2006-06-08 04:49:52 51°13.787 2°55.682 326.2 3.8 324 9.1
2006-06-08 04:49:56 51°13.799 2°55.669 327.5 6.9 326 9.3
2006-06-08 04:50:02 51°13.809 2°55.658 328.7 7.7 326 9.4
2006-06-08 04:50:07 51°13.819 2°55.648 330.1 8 329 9.6
2006-06-08 04:50:12 51°13.829 2°55.639 331.7 8.3 330 9.6
2006-06-08 04:50:17 51°13.839 2°55.63 333.3 7.1 331 9.5
2006-06-08 04:50:22 51°13.85 2°55.62 334.5 8.8 331 9.5
2006-06-08 04:50:26 51°13.859 2°55.613 334.8 5.2 331 9.4
2006-06-08 04:50:31 51°13.87 2°55.604 336.4 7.5 334 9.4
2006-06-08 04:50:36 51°13.881 2°55.595 337.1 9.5 333 9.5
2006-06-08 04:50:42 51°13.896 2°55.585 338.2 9.4 336 9.7
2006-06-08 04:50:47 51°13.908 2°55.576 340 9.5 336 9.7
2006-06-08 04:50:52 51°13.92 2°55.567 340.2 9.7 336 9.6
2006-06-08 04:50:57 51°13.932 2°55.558 339.9 9.8 335 9.6
2006-06-08 04:51:02 51°13.945 2°55.55 341 9.9 338 9.6
2006-06-08 04:51:07 51°13.958 2°55.541 341.2 10.1 337 9.5
2006-06-08 04:51:12 51°13.971 2°55.533 341.5 10.1 338 9.6
2006-06-08 04:51:17 51°13.984 2°55.524 341.8 10.2 338 9.6
2006-06-08 04:51:22 51°13.997 2°55.516 341.1 10.1 337 9.7
2006-06-08 04:51:27 51°14.009 2°55.508 341.4 9.7 339 9.7
2006-06-08 04:51:32 51°14.021 2°55.5 341.5 9.5 338 9.6
2006-06-08 04:51:36 51°14.031 2°55.494 341.5 9.1 339 9.6
2006-06-08 04:51:42 51°14.044 2°55.485 341.8 9 339 9.6
2006-06-08 04:51:47 51°14.055 2°55.478 341.5 8.8 337 9.8
2006-06-08 04:51:52 51°14.066 2°55.471 341.3 8.6 338 9.8
2006-06-08 04:51:57 51°14.077 2°55.463 340.9 8.6 337 9.8
2006-06-08 04:52:02 51°14.088 2°55.456 340.5 8.7 336 9.8
2006-06-08 04:52:07 51°14.099 2°55.447 340.1 8.8 336 9.8
2006-06-08 04:52:12 51°14.11 2°55.439 339.7 8.9 335 9.7
2006-06-08 04:52:17 51°14.122 2°55.431 339.6 9 335 9.8
2006-06-08 04:52:22 51°14.133 2°55.422 339.4 9 335 9.7
2006-06-08 04:52:27 51°14.144 2°55.413 338.9 9.1 334 9.7
2006-06-08 04:52:32 51°14.156 2°55.404 338.1 9.2 333 9.7
2006-06-08 04:52:36 51°14.165 2°55.397 336.6 9.3 332 9.7
2006-06-08 04:52:42 51°14.178 2°55.384 335.3 9.4 331 9.6
2006-06-08 04:52:48 51°14.192 2°55.371 333.5 9.6 329 9.6
2006-06-08 04:52:52 51°14.201 2°55.361 331.4 9.7 327 9.6
2006-06-08 04:52:57 51°14.211 2°55.348 329.2 9.8 325 9.6
2006-06-08 04:53:02 51°14.223 2°55.335 327.1 9.8 322 9.6
2006-06-08 04:53:07 51°14.233 2°55.32 324.9 9.9 320 9.6
2006-06-08 04:53:12 51°14.243 2°55.305 322.5 10 317 9.6
2006-06-08 04:53:17 51°14.253 2°55.289 321.1 10.2 316 9.6
2006-06-08 04:53:22 51°14.263 2°55.273 320 10.3 314 9.5
2006-06-08 04:53:27 51°14.273 2°55.256 317.1 10.3 312 9.5
2006-06-08 04:53:32 51°14.282 2°55.238 314.9 10.4 310 9.5
2006-06-08 04:53:36 51°14.289 2°55.224 313.9 10.5 310 9.5
2006-06-08 04:53:42 51°14.3 2°55.202 312.8 10.5 308 9.5
2006-06-08 04:53:47 51°14.309 2°55.183 311.6 10.5 307 9.5
2006-06-08 04:53:51 51°14.316 2°55.168 310.3 10.6 306 9.5
2006-06-08 04:53:56 51°14.324 2°55.149 309 10.7 305 9.5
2006-06-08 04:54:02 51°14.335 2°55.126 308.9 10.7 305 9.6
2006-06-08 04:54:07 51°14.343 2°55.106 309.1 10.8 306 9.6
2006-06-08 04:54:12 51°14.353 2°55.087 310 10.9 307 9.5
2006-06-08 04:54:16 51°14.36 2°55.072 311.3 11.1 308 9.4
2006-06-08 04:54:22 51°14.372 2°55.049 311.5 11.2 308 9.5
2006-06-08 04:54:27 51°14.383 2°55.031 314.7 11.3 313 9.6
2006-06-08 04:54:32 51°14.394 2°55.013 318.7 11.5 316 9.5
2006-06-08 04:54:37 51°14.406 2°54.995 320.4 11.7 317 9.4
2006-06-08 04:54:42 51°14.419 2°54.978 321.5 11.8 318 9.5
2006-06-08 04:54:47 51°14.431 2°54.96 322.7 12 319 9.5
2006-06-08 04:54:52 51°14.444 2°54.944 325 12.1 322 8.9
2006-06-08 04:54:56 51°14.455 2°54.93 327 12.4 320 9.1
2006-06-08 04:55:02 51°14.471 2°54.909 327.5 12.4 321 8.7
2006-06-08 04:55:08 51°14.487 2°54.888 328 12.4 321 8.6
2006-06-08 04:55:11 51°14.495 2°54.878 328.7 12.4 322 8.5
2006-06-08 04:55:17 51°14.512 2°54.858 330.1 12.5 322 8.4
2006-06-08 04:55:22 51°14.526 2°54.841 330.8 12.5 323 8.3
2006-06-08 04:55:27 51°14.54 2°54.825 331.2 12.6 323 8.3
2006-06-08 04:55:31 51°14.551 2°54.812 332.1 12.6 325 8.3
2006-06-08 04:55:38 51°14.571 2°54.791 333 12.6 326 8.2
2006-06-08 04:55:42 51°14.583 2°54.778 334.7 12.5 327 8.2
2006-06-08 04:55:47 51°14.598 2°54.764 335.6 12.6 327 8.1
2006-06-08 04:55:52 51°14.613 2°54.748 335.8 12.6 327 8.1
2006-06-08 04:55:56 51°14.624 2°54.736 335.7 12.6 327 8.2
2006-06-08 04:56:02 51°14.642 2°54.717 335.3 12.6 326 8.2
2006-06-08 04:56:07 51°14.656 2°54.701 334.9 12.6 326 8.2
2006-06-08 04:56:12 51°14.67 2°54.685 334.1 12.7 325 8.4
2006-06-08 04:56:15 51°14.679 2°54.675 333.7 12.7 324 8.2
2006-06-08 04:56:22 51°14.699 2°54.652 332.6 12.7 323 8.2
2006-06-08 04:56:27 51°14.712 2°54.634 331.5 12.8 321 8.2
2006-06-08 04:56:32 51°14.726 2°54.615 329.7 12.7 320 8.1
2006-06-08 04:56:38 51°14.742 2°54.593 328 12.7 318 8.1
2006-06-08 04:56:42 51°14.752 2°54.578 327.1 12.8 318 8.1
2006-06-08 04:56:47 51°14.765 2°54.559 326.2 12.8 318 8.2
2006-06-08 04:56:51 51°14.776 2°54.544 326 12.7 318 8
2006-06-08 04:56:56 51°14.789 2°54.525 326 12.8 318 8.1
2006-06-08 04:57:02 51°14.805 2°54.503 326.5 12.7 319 8
2006-06-08 04:57:07 51°14.818 2°54.484 327 12.7 319 8.1
2006-06-08 04:57:12 51°14.831 2°54.466 327.5 12.7 320 8
2006-06-08 04:57:17 51°14.845 2°54.449 328.2 12.7 321 8
2006-06-08 04:57:22 51°14.859 2°54.432 329.3 12.7 323 8.1
2006-06-08 04:57:27 51°14.874 2°54.416 331.8 12.6 325 8
2006-06-08 04:57:32 51°14.888 2°54.401 334 12.6 327 8.1
2006-06-08 04:57:37 51°14.903 2°54.387 336 12.5 328 8.1
2006-06-08 04:57:42 51°14.918 2°54.372 336.8 12.5 328 7.9
2006-06-08 04:57:47 51°14.932 2°54.358 337.7 12.5 329 7.8
2006-06-08 04:57:52 51°14.947 2°54.344 337.9 12.4 328 7.7
2006-06-08 04:57:57 51°14.962 2°54.329 338 12.4 328 -999
2006-06-08 04:58:02 51°14.976 2°54.315 338 12.3 328 7.5
2006-06-08 04:58:07 51°14.99 2°54.301 337.9 12.3 328 7.4
2006-06-08 04:58:12 51°15.005 2°54.287 337.9 12.3 328 7.4
2006-06-08 04:58:17 51°15.019 2°54.272 337.9 12.3 328 7.4
2006-06-08 04:58:22 51°15.034 2°54.258 338.1 12.2 328 5.5
2006-06-08 04:58:27 51°15.048 2°54.244 338.2 12.2 329 7.4
2006-06-08 04:58:32 51°15.063 2°54.231 338.8 12.2 330 7.5
2006-06-08 04:58:36 51°15.075 2°54.221 339.8 12.3 331 7.5
2006-06-08 04:58:42 51°15.093 2°54.205 340.3 12.3 331 7.6
2006-06-08 04:58:46 51°15.105 2°54.194 340.3 12.4 331 7.6
2006-06-08 04:58:52 51°15.123 2°54.178 339.6 12.4 330 7.7
2006-06-08 04:58:56 51°15.134 2°54.166 338.5 12.5 328 7.7
2006-06-08 04:59:02 51°15.152 2°54.148 337.6 12.5 327 7.7
2006-06-08 04:59:07 51°15.166 2°54.133 336.5 12.5 327 7.7
2006-06-08 04:59:12 51°15.18 2°54.116 335 12.5 324 7.8
2006-06-08 04:59:17 51°15.194 2°54.099 333.1 12.5 322 7.8
2006-06-08 04:59:22 51°15.207 2°54.08 330.6 12.6 319 7.8
2006-06-08 04:59:27 51°15.22 2°54.061 328.2 12.7 318 7.9
2006-06-08 04:59:32 51°15.232 2°54.042 326.8 12.7 316 7.9
2006-06-08 04:59:35 51°15.24 2°54.03 325.9 12.8 315 8
2006-06-08 04:59:41 51°15.255 2°54.006 325.3 12.8 315 8.1
2006-06-08 04:59:46 51°15.268 2°53.986 325.1 12.8 315 8.2
2006-06-08 04:59:51 51°15.28 2°53.966 325.1 12.8 316 8.3
2006-06-08 04:59:58 51°15.299 2°53.939 325.9 12.9 317 8.5
2006-06-08 05:00:02 51°15.309 2°53.924 326.8 12.9 317 8.5
2006-06-08 05:00:07 51°15.323 2°53.906 328.9 12.8 321 8.5
2006-06-08 05:00:12 51°15.337 2°53.889 331.4 12.8 323 8.6
2006-06-08 05:00:18 51°15.354 2°53.87 333.4 12.7 324 8.7
2006-06-08 05:00:22 51°15.366 2°53.857 335.1 12.7 325 8.7
2006-06-08 05:00:27 51°15.381 2°53.842 336.2 12.7 326 8.7
2006-06-08 05:00:31 51°15.393 2°53.829 336.7 12.7 327 8.8
2006-06-08 05:00:37 51°15.411 2°53.811 337.5 12.7 328 8.8
2006-06-08 05:00:42 51°15.425 2°53.797 337.8 12.7 328 8.9
2006-06-08 05:00:47 51°15.441 2°53.781 338.1 12.7 328 9
2006-06-08 05:00:52 51°15.455 2°53.766 337.9 12.7 327 9
2006-06-08 05:00:57 51°15.47 2°53.751 337.4 12.8 327 9.2
2006-06-08 05:01:02 51°15.485 2°53.735 337.1 12.8 327 9.1
2006-06-08 05:01:07 51°15.5 2°53.719 336.5 12.8 325 9.2
2006-06-08 05:01:12 51°15.513 2°53.702 335.3 12.8 324 9.2
2006-06-08 05:01:17 51°15.528 2°53.684 333.4 12.9 322 9.3
2006-06-08 05:01:22 51°15.541 2°53.667 332 12.8 321 9.2
2006-06-08 05:01:26 51°15.552 2°53.652 331.2 12.8 321 9.2
2006-06-08 05:01:32 51°15.569 2°53.631 330.7 12.9 320 9.3
2006-06-08 05:01:36 51°15.58 2°53.616 330.6 12.9 321 9.3
2006-06-08 05:01:42 51°15.597 2°53.595 330.6 12.9 321 9.4
2006-06-08 05:01:47 51°15.611 2°53.577 330.7 12.9 321 9.5
2006-06-08 05:01:52 51°15.625 2°53.56 331.6 12.8 323 9.5
2006-06-08 05:01:56 51°15.637 2°53.547 333.1 12.8 325 9.5
2006-06-08 05:02:02 51°15.654 2°53.528 334.8 12.8 326 9.6
2006-06-08 05:02:07 51°15.669 2°53.513 336.1 12.7 327 9.6
2006-06-08 05:02:12 51°15.684 2°53.498 336.9 12.7 328 9.7
2006-06-08 05:02:17 51°15.699 2°53.483 337.3 12.7 328 9.8
2006-06-08 05:02:22 51°15.714 2°53.469 337.5 12.7 329 9.8
2006-06-08 05:02:26 51°15.726 2°53.457 337.7 12.7 328 9.8
2006-06-08 05:02:32 51°15.744 2°53.439 338.3 12.7 330 9.9
2006-06-08 05:02:36 51°15.756 2°53.428 338.7 12.7 330 9.9
2006-06-08 05:02:42 51°15.775 2°53.411 339.1 12.7 330 10
2006-06-08 05:02:47 51°15.79 2°53.397 339.3 12.7 330 10.1
2006-06-08 05:02:52 51°15.805 2°53.383 339.6 12.7 330 10
2006-06-08 05:02:56 51°15.817 2°53.372 339.6 12.8 329 10.1
2006-06-08 05:03:02 51°15.836 2°53.355 339.5 12.7 330 10.1
2006-06-08 05:03:07 51°15.851 2°53.34 339.2 12.8 329 10.2
2006-06-08 05:03:12 51°15.866 2°53.325 338.2 12.8 328 10.2
2006-06-08 05:03:17 51°15.881 2°53.309 337.2 12.8 326 10.3
2006-06-08 05:03:22 51°15.895 2°53.294 336.7 12.8 326 10.3
2006-06-08 05:03:27 51°15.91 2°53.278 335.8 12.8 326 10.4
2006-06-08 05:03:32 51°15.925 2°53.262 335.5 12.8 326 10.4
2006-06-08 05:03:37 51°15.94 2°53.247 336.2 12.7 327 10.5
2006-06-08 05:03:42 51°15.955 2°53.233 337.6 12.7 329 10.5
2006-06-08 05:03:47 51°15.97 2°53.22 339.5 12.7 331 10.5
2006-06-08 05:03:52 51°15.986 2°53.207 341.7 12.6 333 10.6
2006-06-08 05:03:57 51°16.002 2°53.195 342.8 12.6 334 10.6
2006-06-08 05:04:02 51°16.017 2°53.183 343.7 12.6 334 10.6
2006-06-08 05:04:07 51°16.033 2°53.171 344.4 12.6 335 10.6
2006-06-08 05:04:12 51°16.049 2°53.16 345 12.5 335 10.6
2006-06-08 05:04:15 51°16.058 2°53.153 345.2 12.5 335 10.7
2006-06-08 05:04:22 51°16.08 2°53.136 345.3 12.6 335 10.8
2006-06-08 05:04:27 51°16.096 2°53.125 345.3 12.5 335 10.8
2006-06-08 05:04:32 51°16.112 2°53.113 345.4 12.6 335 10.8
2006-06-08 05:04:37 51°16.127 2°53.1 345.3 12.5 335 10.7
2006-06-08 05:04:42 51°16.143 2°53.088 344.6 12.6 334 10.8
2006-06-08 05:04:47 51°16.159 2°53.076 344.3 12.6 333 10.8
2006-06-08 05:04:52 51°16.174 2°53.063 343.5 12.6 332 10.8
2006-06-08 05:04:58 51°16.192 2°53.047 343.3 12.6 332 10.8
2006-06-08 05:05:02 51°16.205 2°53.037 342.8 12.6 331 10.8
2006-06-08 05:05:07 51°16.22 2°53.023 342.3 12.6 332 10.8
2006-06-08 05:05:12 51°16.235 2°53.01 341.9 12.6 331 10.8
2006-06-08 05:05:17 51°16.251 2°52.997 341.8 12.5 332 10.9
2006-06-08 05:05:22 51°16.266 2°52.984 342.1 12.6 332 10.9
2006-06-08 05:05:27 51°16.282 2°52.973 343.5 12.5 336 10.9
2006-06-08 05:05:32 51°16.298 2°52.963 345.7 12.4 338 10.9
2006-06-08 05:05:37 51°16.314 2°52.954 347.5 12.4 340 10.9
2006-06-08 05:05:42 51°16.33 2°52.945 348.7 12.4 341 10.9
2006-06-08 05:05:47 51°16.347 2°52.936 349.6 12.4 342 10.9
2006-06-08 05:05:52 51°16.363 2°52.927 349.8 12.4 341 10.9
2006-06-08 05:05:57 51°16.38 2°52.918 349.8 12.4 342 10.9
2006-06-08 05:06:02 51°16.396 2°52.91 349.8 12.4 342 11
2006-06-08 05:06:07 51°16.412 2°52.901 349.5 12.4 342 10.9
2006-06-08 05:06:11 51°16.425 2°52.894 349.1 12.4 341 10.8
2006-06-08 05:06:16 51°16.442 2°52.885 348.8 12.4 341 10.9
2006-06-08 05:06:22 51°16.461 2°52.874 348.3 12.4 340 10.8
2006-06-08 05:06:27 51°16.477 2°52.864 348 12.4 340 10.7
2006-06-08 05:06:32 51°16.493 2°52.854 347.4 12.4 339 10.8
2006-06-08 05:06:37 51°16.509 2°52.844 346.8 12.4 339 10.7
2006-06-08 05:06:42 51°16.525 2°52.833 345.6 12.4 337 10.7
2006-06-08 05:06:47 51°16.541 2°52.823 344.7 12.4 337 10.6
2006-06-08 05:06:52 51°16.556 2°52.812 344.3 12.4 336 10.6
2006-06-08 05:06:57 51°16.572 2°52.801 344 12.4 337 10.8
2006-06-08 05:07:02 51°16.588 2°52.79 343.9 12.4 336 10.5
2006-06-08 05:07:07 51°16.603 2°52.779 343.7 12.4 337 10.5
2006-06-08 05:07:12 51°16.619 2°52.768 343.7 12.3 337 10.3
2006-06-08 05:07:16 51°16.631 2°52.76 344.2 12.3 338 10.2
2006-06-08 05:07:22 51°16.65 2°52.748 345.3 12.3 339 10.1
2006-06-08 05:07:27 51°16.666 2°52.739 346.2 12.3 340 10
2006-06-08 05:07:32 51°16.682 2°52.73 347.2 12.3 341 9.9
2006-06-08 05:07:37 51°16.698 2°52.721 347.6 12.2 340 9.7
2006-06-08 05:07:42 51°16.714 2°52.712 347.6 12.2 340 9.4
2006-06-08 05:07:47 51°16.731 2°52.703 347.6 12.2 340 9.3
2006-06-08 05:07:52 51°16.746 2°52.694 347.9 12.1 340 9
2006-06-08 05:07:56 51°16.759 2°52.686 347.9 12 340 8.7
2006-06-08 05:08:02 51°16.778 2°52.675 347.9 12 340 8.7
2006-06-08 05:08:07 51°16.793 2°52.666 347.7 11.9 340 8.8
2006-06-08 05:08:12 51°16.809 2°52.657 346.9 12 339 8.7
2006-06-08 05:08:17 51°16.824 2°52.647 346.9 12 340 8.8
2006-06-08 05:08:22 51°16.84 2°52.638 347 12 339 8.5
2006-06-08 05:08:27 51°16.856 2°52.629 347.5 12 340 8.5
2006-06-08 05:08:32 51°16.871 2°52.62 347.8 12 340 8.6
2006-06-08 05:08:36 51°16.884 2°52.614 348.5 11.9 341 8.6
2006-06-08 05:08:42 51°16.902 2°52.603 349.1 11.9 341 8.8
2006-06-08 05:08:47 51°16.918 2°52.595 349.3 12 341 8.9
2006-06-08 05:08:52 51°16.934 2°52.586 349.3 12 341 8.9
2006-06-08 05:08:57 51°16.95 2°52.577 349.3 12.1 340 8.9
2006-06-08 05:09:02 51°16.965 2°52.568 349 12.1 340 9
2006-06-08 05:09:07 51°16.981 2°52.559 348.5 12.1 340 8.8
2006-06-08 05:09:12 51°16.997 2°52.55 348.3 12.1 340 8.7
2006-06-08 05:09:17 51°17.012 2°52.54 348 12 340 8.7
2006-06-08 05:09:22 51°17.028 2°52.531 347.6 12 339 8.6
2006-06-08 05:09:27 51°17.043 2°52.52 346.7 12 337 8.7
2006-06-08 05:09:32 51°17.058 2°52.509 345.5 12 336 8.7
2006-06-08 05:09:37 51°17.073 2°52.498 344 12 334 8.7
2006-06-08 05:09:42 51°17.088 2°52.486 343.1 12 334 8.7
2006-06-08 05:09:47 51°17.103 2°52.474 342.1 12.1 333 8.8
2006-06-08 05:09:51 51°17.115 2°52.464 341.4 12.1 333 8.7
2006-06-08 05:09:58 51°17.136 2°52.446 341.1 12.1 333 8.9
2006-06-08 05:10:02 51°17.148 2°52.437 341.1 12.1 333 8.9
2006-06-08 05:10:07 51°17.163 2°52.425 341.5 12.1 334 8.9
2006-06-08 05:10:12 51°17.178 2°52.415 343 12.1 336 9
2006-06-08 05:10:17 51°17.194 2°52.404 344.7 12.1 337 9.1
2006-06-08 05:10:22 51°17.209 2°52.395 346.2 12 339 9.2
2006-06-08 05:10:27 51°17.225 2°52.385 347.3 12 339 9.2
2006-06-08 05:10:32 51°17.24 2°52.376 348.1 12 340 9.2
2006-06-08 05:10:37 51°17.256 2°52.367 348.8 12 340 9.2
2006-06-08 05:10:42 51°17.272 2°52.359 349 12 341 9.4
2006-06-08 05:10:47 51°17.288 2°52.35 349.1 12.1 340 9.4
2006-06-08 05:10:52 51°17.304 2°52.341 349.1 12.1 340 9.4
2006-06-08 05:10:57 51°17.319 2°52.332 348.9 12.1 340 9.4
2006-06-08 05:11:02 51°17.335 2°52.322 348.4 12.1 339 9.5
2006-06-08 05:11:06 51°17.347 2°52.314 347.9 12.1 338 9.4
2006-06-08 05:11:11 51°17.363 2°52.304 347.2 12.1 338 9.5
2006-06-08 05:11:16 51°17.378 2°52.293 346.5 12.1 337 9.4
2006-06-08 05:11:22 51°17.396 2°52.281 346 12.1 337 9.4
2006-06-08 05:11:27 51°17.412 2°52.27 345.7 12.1 336 9.4
2006-06-08 05:11:32 51°17.427 2°52.259 345 12.1 336 9.4
2006-06-08 05:11:36 51°17.439 2°52.249 344.6 12.1 335 9.4
2006-06-08 05:11:42 51°17.457 2°52.235 343.9 12.1 334 9.4
2006-06-08 05:11:47 51°17.472 2°52.223 343.2 12.1 334 9.5
2006-06-08 05:11:51 51°17.484 2°52.214 342.7 12.1 333 9.4
2006-06-08 05:11:56 51°17.499 2°52.202 342.6 12.1 334 9.5
2006-06-08 05:12:02 51°17.518 2°52.188 342.8 12.1 335 9.5
2006-06-08 05:12:07 51°17.533 2°52.178 344.3 12.1 336 9.5
2006-06-08 05:12:12 51°17.548 2°52.167 345.5 12.1 337 9.5
2006-06-08 05:12:17 51°17.564 2°52.157 346.7 12.1 338 9.5
2006-06-08 05:12:22 51°17.579 2°52.148 347.4 12.1 339 9.5
2006-06-08 05:12:27 51°17.595 2°52.138 347.6 12.1 339 9.4
2006-06-08 05:12:31 51°17.607 2°52.131 348 12.1 339 9.4
2006-06-08 05:12:35 51°17.62 2°52.123 348 12.1 339 9.5
2006-06-08 05:12:42 51°17.642 2°52.11 348.3 12.1 339 9.4
2006-06-08 05:12:47 51°17.658 2°52.101 348.3 12 339 9.3
2006-06-08 05:12:51 51°17.67 2°52.093 347.9 12.1 338 9.4
2006-06-08 05:12:56 51°17.686 2°52.083 347.3 12.1 338 9.5
2006-06-08 05:13:02 51°17.704 2°52.07 347.1 12.1 338 9.5
2006-06-08 05:13:07 51°17.72 2°52.06 346.3 12.1 337 9.5
2006-06-08 05:13:12 51°17.735 2°52.05 346.2 12.1 337 9.3
2006-06-08 05:13:16 51°17.747 2°52.041 346.5 12.1 338 9.4
2006-06-08 05:13:22 51°17.766 2°52.029 346.7 12.1 338 9.4
2006-06-08 05:13:27 51°17.781 2°52.02 347 12 339 9.3
2006-06-08 05:13:32 51°17.797 2°52.011 347.6 12.1 339 9.4
2006-06-08 05:13:36 51°17.809 2°52.003 348.1 12 339 9.4
2006-06-08 05:13:41 51°17.825 2°51.993 348.3 12 339 9.3
2006-06-08 05:13:48 51°17.847 2°51.979 348.2 12.1 338 9.4
2006-06-08 05:13:52 51°17.859 2°51.972 347.7 12.1 338 9.4
2006-06-08 05:13:57 51°17.874 2°51.961 347.4 12.1 338 9.4
2006-06-08 05:14:02 51°17.89 2°51.951 347.1 12.1 338 9.5
2006-06-08 05:14:07 51°17.905 2°51.94 346.5 12.1 336 9.4
2006-06-08 05:14:12 51°17.921 2°51.93 346.2 12.1 338 9.5
2006-06-08 05:14:18 51°17.939 2°51.918 346.2 12.2 337 9.5
2006-06-08 05:14:21 51°17.949 2°51.912 346.3 12.1 338 9.5
2006-06-08 05:14:26 51°17.964 2°51.902 346.8 12.1 338 9.5
2006-06-08 05:14:31 51°17.98 2°51.892 347.3 12.1 339 9.6
2006-06-08 05:14:38 51°18.002 2°51.879 347.9 12.1 339 9.6
2006-06-08 05:14:42 51°18.015 2°51.871 348.3 12.1 339 9.6
2006-06-08 05:14:47 51°18.03 2°51.861 348.3 12.2 338 9.7
2006-06-08 05:14:52 51°18.046 2°51.851 347.7 12.2 338 9.8
2006-06-08 05:14:57 51°18.062 2°51.84 347 12.2 337 9.8
2006-06-08 05:15:01 51°18.074 2°51.831 346.1 12.2 336 9.9
2006-06-08 05:15:07 51°18.092 2°51.818 345.3 12.2 335 9.8
2006-06-08 05:15:12 51°18.108 2°51.806 344.3 12.2 334 9.9
2006-06-08 05:15:16 51°18.12 2°51.796 343.6 12.3 334 10
2006-06-08 05:15:22 51°18.138 2°51.781 342.7 12.3 333 10.1
2006-06-08 05:15:27 51°18.153 2°51.768 342.1 12.3 332 10.1
2006-06-08 05:15:32 51°18.168 2°51.756 342.1 12.3 333 10.2
2006-06-08 05:15:37 51°18.184 2°51.744 342.5 12.3 333 10.2
2006-06-08 05:15:42 51°18.199 2°51.733 343.5 12.2 336 10.3
2006-06-08 05:15:48 51°18.218 2°51.72 345.4 12.2 336 10.4
2006-06-08 05:15:51 51°18.228 2°51.714 346.1 12.2 337 10.5
2006-06-08 05:15:56 51°18.243 2°51.703 346.8 12.3 337 10.6
2006-06-08 05:16:02 51°18.262 2°51.691 347.2 12.3 338 10.7
2006-06-08 05:16:08 51°18.281 2°51.678 347.3 12.3 337 10.8
2006-06-08 05:16:11 51°18.29 2°51.672 347.4 12.3 338 10.8
2006-06-08 05:16:17 51°18.309 2°51.66 347.4 12.3 337 10.9
2006-06-08 05:16:22 51°18.325 2°51.649 347.2 12.3 337 11
2006-06-08 05:16:26 51°18.337 2°51.64 347.2 12.3 337 11.1
2006-06-08 05:16:32 51°18.356 2°51.627 346.6 12.4 336 11.2
2006-06-08 05:16:36 51°18.369 2°51.617 345.7 12.3 335 11.3
2006-06-08 05:16:42 51°18.387 2°51.603 345 12.3 334 11.4
2006-06-08 05:16:47 51°18.403 2°51.591 344.4 12.4 334 11.5
2006-06-08 05:16:52 51°18.418 2°51.579 344.1 12.4 334 11.6
2006-06-08 05:16:58 51°18.437 2°51.564 344 12.4 334 11.7
2006-06-08 05:17:01 51°18.446 2°51.557 344 12.4 334 11.8
2006-06-08 05:17:07 51°18.464 2°51.542 344.1 12.4 334 11.9
2006-06-08 05:17:12 51°18.48 2°51.531 344.6 12.4 335 12
2006-06-08 05:17:18 51°18.499 2°51.518 345.7 12.4 336 12.1
2006-06-08 05:17:21 51°18.509 2°51.511 346.5 12.4 337 12.1
2006-06-08 05:17:26 51°18.524 2°51.5 347 12.4 337 12.3
2006-06-08 05:17:32 51°18.543 2°51.487 347.1 12.4 337 12.4
2006-06-08 05:17:37 51°18.559 2°51.477 347.2 12.4 337 12.5
2006-06-08 05:17:42 51°18.575 2°51.465 347.2 12.4 336 12.6
2006-06-08 05:17:47 51°18.591 2°51.454 346.9 12.4 336 12.7
2006-06-08 05:17:52 51°18.606 2°51.443 346.9 12.5 336 12.8
2006-06-08 05:17:57 51°18.622 2°51.432 346.6 12.4 336 12.9
2006-06-08 05:18:02 51°18.638 2°51.42 346.2 12.5 336 12.9
2006-06-08 05:18:07 51°18.654 2°51.409 345.7 12.5 335 13
2006-06-08 05:18:12 51°18.67 2°51.397 345.4 12.5 335 13.1
2006-06-08 05:18:17 51°18.685 2°51.386 345.4 12.5 336 13.2
2006-06-08 05:18:22 51°18.701 2°51.375 345.9 12.4 336 13.2
2006-06-08 05:18:27 51°18.717 2°51.364 346.6 12.5 337 13.3
2006-06-08 05:18:32 51°18.733 2°51.353 347.4 12.5 337 13.3
2006-06-08 05:18:38 51°18.752 2°51.341 347.5 12.5 338 13.3
2006-06-08 05:18:41 51°18.762 2°51.334 347.8 12.4 338 13.4
2006-06-08 05:18:46 51°18.777 2°51.324 347.8 12.5 337 13.4
2006-06-08 05:18:52 51°18.797 2°51.311 347.5 12.4 337 13.5
2006-06-08 05:18:57 51°18.813 2°51.299 347.1 12.5 336 13.5
2006-06-08 05:19:02 51°18.828 2°51.288 346.8 12.5 337 13.6
2006-06-08 05:19:07 51°18.844 2°51.277 346.8 12.5 336 13.7
2006-06-08 05:19:12 51°18.86 2°51.266 346.8 12.5 337 13.6
2006-06-08 05:19:17 51°18.876 2°51.255 346.9 12.5 337 13.7
2006-06-08 05:19:21 51°18.889 2°51.247 346.9 12.5 337 13.8
2006-06-08 05:19:27 51°18.908 2°51.234 347 12.5 337 13.8
2006-06-08 05:19:32 51°18.924 2°51.223 347.2 12.5 337 13.8
2006-06-08 05:19:37 51°18.94 2°51.212 347.4 12.5 337 13.9
2006-06-08 05:19:42 51°18.956 2°51.201 347.4 12.6 337 14
2006-06-08 05:19:47 51°18.972 2°51.19 347.3 12.5 337 14
2006-06-08 05:19:52 51°18.988 2°51.179 347.2 12.6 337 14
2006-06-08 05:19:57 51°19.004 2°51.168 346.8 12.6 336 14
2006-06-08 05:20:02 51°19.02 2°51.157 346.3 12.6 336 14
2006-06-08 05:20:07 51°19.036 2°51.146 346.8 12.5 337 14.1
2006-06-08 05:20:11 51°19.049 2°51.138 347.5 12.5 338 14.1
2006-06-08 05:20:17 51°19.068 2°51.126 348.3 12.5 339 14.1
2006-06-08 05:20:22 51°19.084 2°51.116 348.5 12.5 338 14
2006-06-08 05:20:28 51°19.104 2°51.104 348.9 12.5 339 14.1
2006-06-08 05:20:31 51°19.113 2°51.098 348.9 12.5 338 14.1
2006-06-08 05:20:38 51°19.136 2°51.083 348.5 12.5 338 14.2
2006-06-08 05:20:42 51°19.148 2°51.074 347.8 12.6 337 14.1
2006-06-08 05:20:47 51°19.164 2°51.062 346.8 12.6 336 14.1
2006-06-08 05:20:52 51°19.18 2°51.05 345.4 12.6 334 14.1
2006-06-08 05:20:57 51°19.195 2°51.038 344.1 12.6 334 14.1
2006-06-08 05:21:02 51°19.211 2°51.025 343.6 12.6 333 14.1
2006-06-08 05:21:07 51°19.227 2°51.012 343.2 12.6 333 14
2006-06-08 05:21:11 51°19.239 2°51.002 342.7 12.6 332 14
2006-06-08 05:21:15 51°19.251 2°50.991 342 12.6 332 14
2006-06-08 05:21:22 51°19.273 2°50.973 342 12.6 332 13.9
2006-06-08 05:21:27 51°19.289 2°50.96 342.5 12.6 333 13.8
2006-06-08 05:21:32 51°19.305 2°50.948 343.2 12.6 334 13.8
2006-06-08 05:21:38 51°19.323 2°50.934 343.7 12.6 334 13.7
2006-06-08 05:21:42 51°19.336 2°50.924 344.5 12.5 335 13.6
2006-06-08 05:21:48 51°19.355 2°50.91 344.6 12.5 335 13.6
2006-06-08 05:21:51 51°19.365 2°50.903 345 12.5 336 13.6
2006-06-08 05:21:57 51°19.384 2°50.889 345 12.6 335 13.4
2006-06-08 05:22:02 51°19.4 2°50.878 345.4 12.5 336 13.3
2006-06-08 05:22:07 51°19.415 2°50.867 345.6 12.5 336 13.4
2006-06-08 05:22:12 51°19.431 2°50.855 345.4 12.6 336 13.1
2006-06-08 05:22:17 51°19.447 2°50.843 345 12.6 335 13.1
2006-06-08 05:22:22 51°19.463 2°50.832 345.2 12.5 336 12.8
2006-06-08 05:22:27 51°19.479 2°50.82 344.9 12.5 335 12.5
2006-06-08 05:22:32 51°19.494 2°50.808 344.6 12.5 335 12.3
2006-06-08 05:22:37 51°19.511 2°50.796 344 12.5 334 12.3
2006-06-08 05:22:41 51°19.523 2°50.786 344 12.5 335 12.1
2006-06-08 05:22:46 51°19.539 2°50.775 344.2 12.5 335 11.8
2006-06-08 05:22:51 51°19.554 2°50.763 344.3 12.5 335 11.6
2006-06-08 05:22:57 51°19.573 2°50.749 344.6 12.5 335 11.5
2006-06-08 05:23:01 51°19.586 2°50.74 344.9 12.5 335 11.4
2006-06-08 05:23:06 51°19.602 2°50.729 345 12.5 336 11.4
2006-06-08 05:23:11 51°19.617 2°50.717 345.1 12.5 336 11.3
2006-06-08 05:23:17 51°19.637 2°50.703 345.2 12.5 336 11.2
2006-06-08 05:23:22 51°19.652 2°50.692 345.2 12.5 336 11.2
2006-06-08 05:23:27 51°19.668 2°50.681 345.1 12.5 335 11
2006-06-08 05:23:32 51°19.683 2°50.669 344.7 12.5 335 10.8
2006-06-08 05:23:38 51°19.702 2°50.655 344.3 12.5 334 10.8
2006-06-08 05:23:41 51°19.711 2°50.647 343.8 12.5 334 10.7
2006-06-08 05:23:47 51°19.73 2°50.633 343.7 12.5 334 10.8
2006-06-08 05:23:52 51°19.746 2°50.621 343.6 12.5 334 11
2006-06-08 05:23:57 51°19.762 2°50.609 344 12.5 335 11.2
2006-06-08 05:24:02 51°19.777 2°50.598 344.2 12.5 335 11.5
2006-06-08 05:24:06 51°19.79 2°50.589 344.6 12.5 336 11.8
2006-06-08 05:24:11 51°19.806 2°50.577 345 12.5 336 11.9
2006-06-08 05:24:16 51°19.822 2°50.566 345.3 12.6 336 12
2006-06-08 05:24:22 51°19.841 2°50.552 345.3 12.6 336 12.1
2006-06-08 05:24:27 51°19.857 2°50.541 345 12.6 336 12.4
2006-06-08 05:24:32 51°19.873 2°50.529 344.9 12.6 336 12.5
2006-06-08 05:24:36 51°19.886 2°50.52 345.1 12.6 336 12.8
2006-06-08 05:24:42 51°19.905 2°50.507 345.2 12.6 336 13
2006-06-08 05:24:47 51°19.921 2°50.495 345.4 12.6 336 13.2
2006-06-08 05:24:52 51°19.937 2°50.484 345.6 12.6 336 13.4
2006-06-08 05:24:55 51°19.946 2°50.477 345.7 12.6 336 13.6
2006-06-08 05:25:02 51°19.969 2°50.461 345.6 12.6 337 13.7
2006-06-08 05:25:07 51°19.985 2°50.45 345.7 12.6 336 13.9
2006-06-08 05:25:12 51°20.001 2°50.438 345.1 12.6 335 14
2006-06-08 05:25:18 51°20.02 2°50.424 344.6 12.7 335 14.3
2006-06-08 05:25:22 51°20.032 2°50.414 344.3 12.7 335 14.6
2006-06-08 05:25:27 51°20.048 2°50.401 343.8 12.7 334 14.8
2006-06-08 05:25:32 51°20.064 2°50.388 343.2 12.7 333 14.9
2006-06-08 05:25:37 51°20.079 2°50.375 342.9 12.7 333 15
2006-06-08 05:25:42 51°20.095 2°50.363 343 12.7 333 14.9
2006-06-08 05:25:47 51°20.111 2°50.351 343.5 12.7 334 14.9
2006-06-08 05:25:52 51°20.127 2°50.339 344.2 12.7 335 15
2006-06-08 05:25:58 51°20.146 2°50.324 344.9 12.7 335 15
2006-06-08 05:26:02 51°20.159 2°50.315 345.5 12.6 336 15.2
2006-06-08 05:26:07 51°20.175 2°50.304 346 12.6 336 15.2
2006-06-08 05:26:12 51°20.191 2°50.292 346.2 12.6 336 15.3
2006-06-08 05:26:16 51°20.204 2°50.283 346.2 12.6 336 15.6
2006-06-08 05:26:22 51°20.223 2°50.269 346.1 12.6 336 15.7
2006-06-08 05:26:27 51°20.239 2°50.258 345.9 12.7 335 15.9
2006-06-08 05:26:32 51°20.255 2°50.246 345.7 12.6 336 16.2
2006-06-08 05:26:36 51°20.267 2°50.237 345.7 12.6 335 16.5
2006-06-08 05:26:41 51°20.283 2°50.225 345.8 12.6 336 16.7
2006-06-08 05:26:47 51°20.302 2°50.211 346 12.6 335 16.9
2006-06-08 05:26:52 51°20.318 2°50.2 345.9 12.6 335 17.2
2006-06-08 05:26:57 51°20.334 2°50.187 345.7 12.6 335 17.5
2006-06-08 05:27:02 51°20.35 2°50.176 345.3 12.7 335 17.8
2006-06-08 05:27:07 51°20.366 2°50.164 345.2 12.6 335 17.9
2006-06-08 05:27:12 51°20.382 2°50.152 345.3 12.6 335 18.2
2006-06-08 05:27:17 51°20.398 2°50.141 345.6 12.6 336 18.3
2006-06-08 05:27:22 51°20.414 2°50.13 346.1 12.6 337 18.6
2006-06-08 05:27:27 51°20.43 2°50.119 346.7 12.6 338 18.9
2006-06-08 05:27:32 51°20.446 2°50.108 347.3 12.6 338 19
2006-06-08 05:27:37 51°20.463 2°50.098 347.6 12.6 338 19.3
2006-06-08 05:27:42 51°20.478 2°50.086 347.2 12.6 337 19.5
2006-06-08 05:27:46 51°20.491 2°50.078 346.8 12.6 337 19.8
2006-06-08 05:27:52 51°20.511 2°50.064 346.4 12.6 336 20
2006-06-08 05:27:55 51°20.52 2°50.057 346.1 12.6 336 20.2
2006-06-08 05:28:02 51°20.543 2°50.041 345.4 12.7 335 20.5
2006-06-08 05:28:07 51°20.559 2°50.029 345.4 12.7 336 20.7
2006-06-08 05:28:12 51°20.574 2°50.017 345.3 12.7 335 20.9
2006-06-08 05:28:15 51°20.584 2°50.01 345.4 12.7 336 21.1
2006-06-08 05:28:22 51°20.607 2°49.994 345.6 12.7 336 21.2
2006-06-08 05:28:27 51°20.623 2°49.983 345.7 12.7 336 21.4
2006-06-08 05:28:31 51°20.636 2°49.974 345.8 12.8 336 21.4
2006-06-08 05:28:38 51°20.658 2°49.957 345.7 12.7 336 21.7
2006-06-08 05:28:42 51°20.671 2°49.947 345.1 12.8 335 21.6
2006-06-08 05:28:48 51°20.69 2°49.934 345 12.8 336 21.6
2006-06-08 05:28:52 51°20.703 2°49.924 344.9 12.8 335 21.7
2006-06-08 05:28:56 51°20.717 2°49.915 344.7 12.8 335 21.8
2006-06-08 05:29:03 51°20.74 2°49.898 344.4 12.8 335 22
2006-06-08 05:29:08 51°20.756 2°49.886 344.1 12.8 334 22.1
2006-06-08 05:29:12 51°20.768 2°49.876 343.8 12.8 334 22
2006-06-08 05:29:17 51°20.784 2°49.863 343.3 12.8 334 22.2
2006-06-08 05:29:22 51°20.8 2°49.85 343.1 12.8 334 22.2
2006-06-08 05:29:27 51°20.816 2°49.837 342.5 12.8 333 22.2
2006-06-08 05:29:32 51°20.831 2°49.824 342.3 12.8 333 22.2
2006-06-08 05:29:35 51°20.841 2°49.816 342 12.8 333 22.2
2006-06-08 05:29:42 51°20.863 2°49.798 341.9 12.8 333 22.3
2006-06-08 05:29:47 51°20.879 2°49.785 341.9 12.8 333 22.3
2006-06-08 05:29:51 51°20.892 2°49.775 342.3 12.8 334 22.2
2006-06-08 05:29:56 51°20.908 2°49.764 343.2 12.7 335 22.4
2006-06-08 05:30:02 51°20.928 2°49.75 343.9 12.7 336 22.4
2006-06-08 05:30:07 51°20.944 2°49.739 344.5 12.7 336 22.4
2006-06-08 05:30:12 51°20.961 2°49.728 345.3 12.8 337 22.3
2006-06-08 05:30:18 51°20.98 2°49.715 346 12.8 338 22.4
2006-06-08 05:30:22 51°20.993 2°49.706 346.4 12.8 338 22.3
2006-06-08 05:30:27 51°21.009 2°49.695 346.9 12.7 338 22.3
2006-06-08 05:30:32 51°21.025 2°49.684 346.9 12.7 337 22.3
2006-06-08 05:30:37 51°21.042 2°49.673 346.7 12.7 337 22.2
2006-06-08 05:30:42 51°21.058 2°49.663 346.5 12.7 338 22.2
2006-06-08 05:30:48 51°21.077 2°49.65 346.4 12.7 338 22.1
2006-06-08 05:30:52 51°21.09 2°49.641 346.5 12.8 338 22.1
2006-06-08 05:30:58 51°21.11 2°49.628 346.5 12.8 338 22
2006-06-08 05:31:02 51°21.123 2°49.619 346.2 12.8 337 21.9
2006-06-08 05:31:07 51°21.139 2°49.608 346.1 12.8 338 21.7
2006-06-08 05:31:12 51°21.156 2°49.598 346.3 12.8 338 21.8
2006-06-08 05:31:17 51°21.172 2°49.587 347 12.8 339 21.6
2006-06-08 05:31:22 51°21.189 2°49.577 347.6 12.7 339 21.6
2006-06-08 05:31:27 51°21.205 2°49.567 347.9 12.8 339 21.4
2006-06-08 05:31:32 51°21.222 2°49.557 347.7 12.8 339 21.4
2006-06-08 05:31:36 51°21.235 2°49.549 347.5 12.8 338 21.5
2006-06-08 05:31:41 51°21.251 2°49.538 346.9 12.7 338 21.5
2006-06-08 05:31:47 51°21.271 2°49.525 346.7 12.8 338 21.5
2006-06-08 05:31:52 51°21.287 2°49.514 346.5 12.8 338 21.4
2006-06-08 05:31:57 51°21.304 2°49.503 346.2 12.8 337 21.5
2006-06-08 05:32:02 51°21.32 2°49.492 346.2 12.8 338 21.4
2006-06-08 05:32:06 51°21.333 2°49.483 346.1 12.8 337 21.5
2006-06-08 05:32:12 51°21.353 2°49.47 346 12.8 338 21.3
2006-06-08 05:32:16 51°21.366 2°49.461 346.1 12.8 337 21.3
2006-06-08 05:32:22 51°21.385 2°49.449 346.4 12.8 338 21
2006-06-08 05:32:27 51°21.402 2°49.438 346.4 12.7 338 20.8
2006-06-08 05:32:32 51°21.418 2°49.428 346.7 12.7 338 20.8
2006-06-08 05:32:38 51°21.438 2°49.415 346.7 12.7 338 20.8
2006-06-08 05:32:42 51°21.45 2°49.407 346.7 12.7 337 20.9
2006-06-08 05:32:47 51°21.467 2°49.395 346.1 12.7 337 21.1
2006-06-08 05:32:52 51°21.483 2°49.385 345.8 12.7 337 21.1
2006-06-08 05:32:56 51°21.496 2°49.376 345.9 12.7 337 21.3
2006-06-08 05:33:02 51°21.516 2°49.363 346.2 12.7 337 21.2
2006-06-08 05:33:08 51°21.535 2°49.35 346.2 12.7 337 21.3
2006-06-08 05:33:12 51°21.548 2°49.341 346.2 12.7 337 21.4
2006-06-08 05:33:16 51°21.561 2°49.332 346.2 12.6 337 21.4
2006-06-08 05:33:22 51°21.581 2°49.319 346.3 12.7 337 21.5
2006-06-08 05:33:27 51°21.597 2°49.308 346.1 12.6 337 21.5
2006-06-08 05:33:32 51°21.613 2°49.297 345.7 12.6 336 21.5
2006-06-08 05:33:36 51°21.625 2°49.288 345.7 12.6 337 21.6
2006-06-08 05:33:42 51°21.645 2°49.275 345.9 12.6 337 21.7
2006-06-08 05:33:47 51°21.661 2°49.264 346.3 12.6 337 21.9
2006-06-08 05:33:52 51°21.677 2°49.253 346.3 12.6 337 21.9
2006-06-08 05:33:56 51°21.69 2°49.245 346.4 12.6 338 21.9
2006-06-08 05:34:02 51°21.709 2°49.232 346.6 12.6 337 22.2
2006-06-08 05:34:07 51°21.726 2°49.221 346.4 12.6 338 22.3
2006-06-08 05:34:12 51°21.741 2°49.21 346.2 12.7 337 22.3
2006-06-08 05:34:16 51°21.754 2°49.202 345.8 12.7 337 22.2
2006-06-08 05:34:22 51°21.774 2°49.187 345.5 12.7 335 22.6
2006-06-08 05:34:26 51°21.786 2°49.178 345.1 12.7 336 22.5
2006-06-08 05:34:32 51°21.806 2°49.165 345.2 12.7 336 22.6
2006-06-08 05:34:37 51°21.822 2°49.154 345.8 12.6 338 22.7
2006-06-08 05:34:42 51°21.838 2°49.144 347 12.7 338 22.5
2006-06-08 05:34:46 51°21.852 2°49.136 347.8 12.6 339 22.7
2006-06-08 05:34:51 51°21.868 2°49.126 348.5 12.7 340 22.7
2006-06-08 05:34:56 51°21.884 2°49.117 349.1 12.6 340 22.4
2006-06-08 05:35:02 51°21.904 2°49.106 349.5 12.6 340 22.6
2006-06-08 05:35:07 51°21.921 2°49.097 349.7 12.6 341 22.4
2006-06-08 05:35:12 51°21.937 2°49.088 349.9 12.6 341 22.5
2006-06-08 05:35:18 51°21.957 2°49.076 349.8 12.6 340 22.5
2006-06-08 05:35:22 51°21.97 2°49.068 349.3 12.6 340 22.3
2006-06-08 05:35:27 51°21.986 2°49.059 349.1 12.6 340 22.6
2006-06-08 05:35:32 51°22.003 2°49.049 348.9 12.7 339 22.7
2006-06-08 05:35:37 51°22.019 2°49.039 348.5 12.7 340 22.5
2006-06-08 05:35:42 51°22.036 2°49.029 348.4 12.7 339 22.6
2006-06-08 05:35:47 51°22.052 2°49.019 347.9 12.6 339 22.6
2006-06-08 05:35:52 51°22.068 2°49.008 347.7 12.7 339 22.6
2006-06-08 05:35:56 51°22.081 2°49 347.5 12.7 338 22.6
2006-06-08 05:36:02 51°22.101 2°48.988 347.4 12.7 339 22.6
2006-06-08 05:36:08 51°22.121 2°48.975 347.1 12.7 339 22.9
2006-06-08 05:36:12 51°22.134 2°48.967 347.1 12.7 339 22.9
2006-06-08 05:36:16 51°22.147 2°48.959 347.3 12.7 339 23
2006-06-08 05:36:22 51°22.167 2°48.947 347.7 12.7 340 23
2006-06-08 05:36:28 51°22.186 2°48.936 348.1 12.7 340 22.8
2006-06-08 05:36:32 51°22.2 2°48.929 348.4 12.7 340 22.7
2006-06-08 05:36:37 51°22.216 2°48.92 348.9 12.6 341 22.7
2006-06-08 05:36:42 51°22.233 2°48.911 349.2 12.6 341 22.8
2006-06-08 05:36:47 51°22.249 2°48.902 349.5 12.5 341 22.2
2006-06-08 05:36:51 51°22.262 2°48.895 349.7 12.6 341 22
2006-06-08 05:36:56 51°22.279 2°48.885 349.3 12.6 341 22
2006-06-08 05:37:02 51°22.298 2°48.874 349.3 12.6 341 21
2006-06-08 05:37:07 51°22.315 2°48.865 348.8 12.6 340 20.4
2006-06-08 05:37:12 51°22.331 2°48.855 348.2 12.6 339 19.5
2006-06-08 05:37:16 51°22.344 2°48.847 347.8 12.5 339 18.4
2006-06-08 05:37:22 51°22.363 2°48.834 346.9 12.5 338 19.5
2006-06-08 05:37:27 51°22.379 2°48.824 346.5 12.5 338 21.8
2006-06-08 05:37:31 51°22.392 2°48.816 346.6 12.5 339 21.9
2006-06-08 05:37:36 51°22.408 2°48.806 347.5 12.5 340 21.5
2006-06-08 05:37:42 51°22.428 2°48.795 348.1 12.5 340 21.5
2006-06-08 05:37:47 51°22.444 2°48.786 348.3 12.4 341 21.2
2006-06-08 05:37:52 51°22.46 2°48.777 348.8 12.4 341 20.7
2006-06-08 05:37:57 51°22.476 2°48.768 349 12.4 340 19.4
2006-06-08 05:38:02 51°22.492 2°48.758 348.8 12.5 340 18.7
2006-06-08 05:38:07 51°22.508 2°48.749 348.7 12.4 340 17.6
2006-06-08 05:38:12 51°22.524 2°48.74 348.6 12.4 340 17.5
2006-06-08 05:38:17 51°22.54 2°48.73 348.4 12.3 340 17
2006-06-08 05:38:22 51°22.556 2°48.721 348.3 12.3 339 15.2
2006-06-08 05:38:27 51°22.572 2°48.711 347.9 12.3 339 17.6
2006-06-08 05:38:32 51°22.588 2°48.702 347.6 12.4 340 17.5
2006-06-08 05:38:37 51°22.605 2°48.693 348.1 12.3 340 16.7
2006-06-08 05:38:42 51°22.62 2°48.684 348.5 12.3 340 14.8
2006-06-08 05:38:48 51°22.639 2°48.672 348.5 12.3 340 16.6
2006-06-08 05:38:52 51°22.652 2°48.665 348.4 12.3 340 17.2
2006-06-08 05:38:58 51°22.671 2°48.654 348.3 12.3 340 17.3
2006-06-08 05:39:02 51°22.684 2°48.646 348.3 12.3 340 16.1
2006-06-08 05:39:07 51°22.7 2°48.637 348.2 12.3 340 14.2
2006-06-08 05:39:12 51°22.716 2°48.627 348.6 12.2 340 16.8
2006-06-08 05:39:17 51°22.732 2°48.618 348.3 12.3 340 17.5
2006-06-08 05:39:22 51°22.748 2°48.609 348.2 12.4 340 17.8
2006-06-08 05:39:26 51°22.761 2°48.601 348 12.4 339 17.6
2006-06-08 05:39:32 51°22.78 2°48.589 347.8 12.4 339 16.8
2006-06-08 05:39:36 51°22.792 2°48.581 347.2 12.4 338 15.8
2006-06-08 05:39:42 51°22.811 2°48.568 346.9 12.3 338 14.9
2006-06-08 05:39:47 51°22.827 2°48.558 346.5 12.3 337 15.8
2006-06-08 05:39:52 51°22.842 2°48.547 346.5 12.3 337 16.8
2006-06-08 05:39:58 51°22.862 2°48.535 346.4 12.3 338 17.2
2006-06-08 05:40:02 51°22.874 2°48.527 347.2 12.3 339 17.1
2006-06-08 05:40:07 51°22.89 2°48.518 348.2 12.3 340 17.7
2006-06-08 05:40:12 51°22.906 2°48.509 349 12.3 340 18
2006-06-08 05:40:16 51°22.919 2°48.501 349.3 12.3 340 18.6
2006-06-08 05:40:22 51°22.938 2°48.491 349.7 12.4 340 19
2006-06-08 05:40:27 51°22.954 2°48.481 349.5 12.4 340 19.4
2006-06-08 05:40:32 51°22.97 2°48.472 349.3 12.4 340 19.3
2006-06-08 05:40:36 51°22.983 2°48.464 348.9 12.4 338 19.1
2006-06-08 05:40:42 51°23.003 2°48.452 348.4 12.4 338 19.6
2006-06-08 05:40:47 51°23.018 2°48.442 348 12.4 337 19.5
2006-06-08 05:40:52 51°23.034 2°48.432 347.2 12.4 337 18.2
2006-06-08 05:40:56 51°23.047 2°48.423 346.9 12.4 336 19.5
2006-06-08 05:41:02 51°23.066 2°48.41 346.1 12.5 336 19.9
2006-06-08 05:41:08 51°23.085 2°48.397 346.9 12.4 337 20.3
2006-06-08 05:41:12 51°23.097 2°48.388 347.3 12.4 338 20.4
2006-06-08 05:41:17 51°23.113 2°48.378 347.7 12.5 338 19.6
2006-06-08 05:41:22 51°23.129 2°48.368 348.2 12.4 339 18.5
2006-06-08 05:41:26 51°23.142 2°48.36 348.5 12.4 338 19.9
2006-06-08 05:41:31 51°23.158 2°48.35 348.6 12.5 339 20.1
2006-06-08 05:41:36 51°23.174 2°48.341 349.2 12.5 339 20.8
2006-06-08 05:41:42 51°23.194 2°48.329 349.3 12.5 339 20.9
2006-06-08 05:41:47 51°23.21 2°48.319 349.5 12.5 339 21
2006-06-08 05:41:52 51°23.226 2°48.31 349.5 12.5 340 20.8
2006-06-08 05:41:56 51°23.239 2°48.302 349.7 12.5 340 20.4
2006-06-08 05:42:02 51°23.258 2°48.291 349.7 12.5 340 19.6
2006-06-08 05:42:07 51°23.274 2°48.281 349.5 12.5 338 18.3
2006-06-08 05:42:12 51°23.29 2°48.27 348.9 12.5 338 19.5
2006-06-08 05:42:15 51°23.3 2°48.264 347.9 12.5 337 20.2
2006-06-08 05:42:22 51°23.322 2°48.248 347.4 12.6 337 20.2
2006-06-08 05:42:27 51°23.338 2°48.237 346.7 12.6 336 20.3
2006-06-08 05:42:32 51°23.354 2°48.226 346.6 12.6 337 20
2006-06-08 05:42:36 51°23.367 2°48.218 346.6 12.6 337 20.3
2006-06-08 05:42:42 51°23.386 2°48.205 347 12.6 338 20.8
2006-06-08 05:42:48 51°23.405 2°48.193 348.3 12.6 338 20.8
2006-06-08 05:42:52 51°23.418 2°48.186 349 12.5 339 21
2006-06-08 05:42:57 51°23.435 2°48.176 349.3 12.5 339 20.7
2006-06-08 05:43:02 51°23.451 2°48.166 349.3 12.6 340 20.7
2006-06-08 05:43:07 51°23.467 2°48.156 349.4 12.6 339 20.2
2006-06-08 05:43:12 51°23.483 2°48.147 349.5 12.5 339 19.7
2006-06-08 05:43:17 51°23.5 2°48.137 349.4 12.6 339 19.5
2006-06-08 05:43:22 51°23.516 2°48.128 349.5 12.5 340 19.3
2006-06-08 05:43:27 51°23.532 2°48.117 349.6 12.5 339 18.3
2006-06-08 05:43:32 51°23.548 2°48.108 349.5 12.6 339 18.9
2006-06-08 05:43:36 51°23.561 2°48.1 349.5 12.6 339 19.7
2006-06-08 05:43:42 51°23.581 2°48.087 349 12.6 338 20
2006-06-08 05:43:47 51°23.597 2°48.078 348.7 12.6 339 20.2
2006-06-08 05:43:52 51°23.613 2°48.067 348.3 12.6 338 20
2006-06-08 05:43:55 51°23.622 2°48.061 348.1 12.7 338 20.3
2006-06-08 05:44:03 51°23.649 2°48.044 348.2 12.7 338 20
2006-06-08 05:44:07 51°23.662 2°48.036 348.8 12.6 339 20.1
2006-06-08 05:44:12 51°23.678 2°48.027 349.1 12.6 339 19.9
2006-06-08 05:44:16 51°23.691 2°48.019 349.2 12.5 339 19.1
2006-06-08 05:44:22 51°23.711 2°48.008 349.5 12.6 340 19
2006-06-08 05:44:27 51°23.727 2°47.999 350.3 12.5 341 19.3
2006-06-08 05:44:32 51°23.743 2°47.989 350.6 12.5 340 19.2
2006-06-08 05:44:36 51°23.757 2°47.982 351.1 12.5 341 19.6
2006-06-08 05:44:42 51°23.776 2°47.971 350.9 12.6 341 18.5
2006-06-08 05:44:48 51°23.796 2°47.96 350.5 12.6 340 17.2
2006-06-08 05:44:51 51°23.806 2°47.953 349.8 12.6 339 17.7
2006-06-08 05:44:57 51°23.825 2°47.941 348.6 12.6 338 19.2
2006-06-08 05:45:02 51°23.841 2°47.93 348.1 12.6 338 19.9
2006-06-08 05:45:08 51°23.86 2°47.918 347.8 12.6 337 20.6
2006-06-08 05:45:12 51°23.873 2°47.909 347.4 12.7 337 21.5
2006-06-08 05:45:16 51°23.886 2°47.9 347.1 12.7 337 21.8
2006-06-08 05:45:22 51°23.906 2°47.887 346.8 12.6 338 22.5
2006-06-08 05:45:27 51°23.922 2°47.876 347.4 12.7 338 22.4
2006-06-08 05:45:32 51°23.939 2°47.867 347.8 12.7 339 22.8
2006-06-08 05:45:35 51°23.949 2°47.861 349.1 12.7 340 22.6
2006-06-08 05:45:42 51°23.972 2°47.848 349.8 12.7 340 21.6
2006-06-08 05:45:47 51°23.988 2°47.839 350.3 12.6 341 22.4
2006-06-08 05:45:51 51°24.001 2°47.832 350.5 12.6 341 22.6
2006-06-08 05:45:56 51°24.018 2°47.823 350.5 12.7 340 22.3
2006-06-08 05:46:02 51°24.038 2°47.811 350.1 12.7 340 21.3
2006-06-08 05:46:07 51°24.054 2°47.802 349.6 12.6 340 21.1
2006-06-08 05:46:12 51°24.071 2°47.792 349.6 12.7 340 20.7
2006-06-08 05:46:18 51°24.09 2°47.781 349.4 12.7 339 20.2
2006-06-08 05:46:22 51°24.104 2°47.773 349.5 12.7 340 20.9
2006-06-08 05:46:27 51°24.12 2°47.763 349.6 12.7 340 21.2
2006-06-08 05:46:32 51°24.137 2°47.754 349.7 12.7 340 20.8
2006-06-08 05:46:38 51°24.156 2°47.742 349.8 12.6 340 21.4
2006-06-08 05:46:42 51°24.17 2°47.735 349.8 12.6 340 21.2
2006-06-08 05:46:47 51°24.186 2°47.725 349.8 12.6 341 21.7
2006-06-08 05:46:52 51°24.203 2°47.716 349.9 12.6 341 22.5
2006-06-08 05:46:57 51°24.219 2°47.707 350.3 12.6 341 22.8
2006-06-08 05:47:02 51°24.236 2°47.698 350.4 12.7 341 23.4
2006-06-08 05:47:07 51°24.253 2°47.689 350.6 12.7 341 23.4
2006-06-08 05:47:12 51°24.269 2°47.681 350.7 12.7 342 24
2006-06-08 05:47:17 51°24.286 2°47.671 350.5 12.7 341 24.3
2006-06-08 05:47:22 51°24.303 2°47.663 350.5 12.6 342 24.4
2006-06-08 05:47:27 51°24.32 2°47.653 350.5 12.7 341 24.9
2006-06-08 05:47:32 51°24.336 2°47.644 350.5 12.7 341 24.8
2006-06-08 05:47:38 51°24.356 2°47.634 350.3 12.7 341 25.2
2006-06-08 05:47:42 51°24.369 2°47.627 350.5 12.7 342 25.4
2006-06-08 05:47:47 51°24.386 2°47.618 350.7 12.7 342 26.1
2006-06-08 05:47:52 51°24.403 2°47.61 350.6 12.7 341 26.1
2006-06-08 05:47:55 51°24.413 2°47.604 350.5 12.7 341 26.3
2006-06-08 05:48:03 51°24.44 2°47.589 350.1 12.7 341 26.6
2006-06-08 05:48:07 51°24.453 2°47.582 349.8 12.7 340 26.6
2006-06-08 05:48:11 51°24.466 2°47.574 349.3 12.7 339 27
2006-06-08 05:48:16 51°24.483 2°47.563 348.9 12.7 339 27.3
2006-06-08 05:48:22 51°24.502 2°47.551 348.3 12.7 339 27.8
2006-06-08 05:48:28 51°24.522 2°47.538 347.9 12.7 338 27.8
2006-06-08 05:48:32 51°24.535 2°47.53 347.4 12.7 338 28.3
2006-06-08 05:48:37 51°24.551 2°47.519 347.3 12.7 338 29
2006-06-08 05:48:42 51°24.568 2°47.51 347.3 12.6 339 29.3
2006-06-08 05:48:47 51°24.585 2°47.5 348 12.6 339 29.3
2006-06-08 05:48:52 51°24.601 2°47.491 348.4 12.7 340 29.4
2006-06-08 05:48:58 51°24.621 2°47.48 349.8 12.6 341 29.8
2006-06-08 05:49:02 51°24.634 2°47.473 350.2 12.6 341 29.9
2006-06-08 05:49:07 51°24.651 2°47.464 350.4 12.6 341 29.7
2006-06-08 05:49:11 51°24.664 2°47.457 350 12.6 340 29.7
2006-06-08 05:49:17 51°24.683 2°47.445 349.2 12.6 340 29.8
2006-06-08 05:49:22 51°24.699 2°47.435 348.6 12.6 339 29.5
2006-06-08 05:49:28 51°24.719 2°47.423 348.4 12.6 340 29.7
2006-06-08 05:49:31 51°24.729 2°47.417 348.6 12.6 340 30.1
2006-06-08 05:49:37 51°24.749 2°47.406 349.1 12.6 341 30
2006-06-08 05:49:42 51°24.765 2°47.397 349.1 12.6 341 29.9
2006-06-08 05:49:47 51°24.781 2°47.387 349.3 12.6 340 30
2006-06-08 05:49:52 51°24.798 2°47.377 349.3 12.6 340 29.5
2006-06-08 05:49:56 51°24.811 2°47.369 349 12.5 340 29.8
2006-06-08 05:50:02 51°24.83 2°47.358 348.7 12.5 340 30
2006-06-08 05:50:07 51°24.846 2°47.349 348.7 12.5 340 29.2
2006-06-08 05:50:12 51°24.863 2°47.339 348.5 12.5 339 29.4
2006-06-08 05:50:18 51°24.883 2°47.328 348 12.5 340 30.1
2006-06-08 05:50:22 51°24.896 2°47.321 347.8 12.5 340 30.1
2006-06-08 05:50:27 51°24.912 2°47.312 348.3 12.5 341 30
2006-06-08 05:50:32 51°24.928 2°47.303 348.9 12.5 340 29.4
2006-06-08 05:50:36 51°24.941 2°47.296 349.7 12.3 341 29.1
2006-06-08 05:50:42 51°24.96 2°47.285 349.9 12.5 341 28.7
2006-06-08 05:50:47 51°24.977 2°47.277 350.4 12.3 343 28
2006-06-08 05:50:52 51°24.993 2°47.268 350.4 12.4 341 27.7
2006-06-08 05:50:55 51°25.003 2°47.264 350.2 12.3 342 27.4
2006-06-08 05:51:03 51°25.029 2°47.25 350.2 12.3 342 26.8
2006-06-08 05:51:07 51°25.042 2°47.243 349.9 12.4 342 25.9
2006-06-08 05:51:11 51°25.055 2°47.236 349.4 12.4 340 25.4
2006-06-08 05:51:18 51°25.078 2°47.223 349 12.3 341 24.8
2006-06-08 05:51:22 51°25.091 2°47.216 348.3 12.4 339 24.5
2006-06-08 05:51:27 51°25.107 2°47.206 348.1 12.4 340 24.4
2006-06-08 05:51:32 51°25.123 2°47.197 348.1 12.4 340 24.2
2006-06-08 05:51:36 51°25.136 2°47.19 348.8 12.3 341 24
2006-06-08 05:51:42 51°25.155 2°47.18 349.5 12.3 342 24.4
2006-06-08 05:51:47 51°25.171 2°47.171 349.6 12.4 342 24.1
2006-06-08 05:51:52 51°25.188 2°47.162 349.5 12.3 342 24.1
2006-06-08 05:51:57 51°25.204 2°47.154 350.2 12.4 343 24
2006-06-08 05:52:02 51°25.22 2°47.146 350.1 12.3 343 24.3
2006-06-08 05:52:08 51°25.24 2°47.137 350.4 12.4 343 24.1
2006-06-08 05:52:12 51°25.253 2°47.13 350.3 12.4 343 24.2
2006-06-08 05:52:16 51°25.266 2°47.123 349.9 12.4 341 24.3
2006-06-08 05:52:22 51°25.285 2°47.111 349 12.4 341 24.2
2006-06-08 05:52:28 51°25.305 2°47.1 348.2 12.4 340 24.3
2006-06-08 05:52:32 51°25.318 2°47.093 348.1 12.4 341 24.4
2006-06-08 05:52:38 51°25.337 2°47.082 348.1 12.4 341 24.2
2006-06-08 05:52:42 51°25.35 2°47.075 348.6 12.4 341 24.2
2006-06-08 05:52:47 51°25.366 2°47.066 349 12.4 341 24.2
2006-06-08 05:52:52 51°25.383 2°47.057 349.3 12.4 342 24.6
2006-06-08 05:52:55 51°25.392 2°47.052 349.7 12.4 342 24.7
2006-06-08 05:53:02 51°25.416 2°47.041 349.9 12.4 342 24.8
2006-06-08 05:53:07 51°25.432 2°47.033 350.3 12.4 343 24.6
2006-06-08 05:53:12 51°25.448 2°47.024 350.3 12.4 342 24.4
2006-06-08 05:53:16 51°25.461 2°47.018 349.8 12.4 342 24.5
2006-06-08 05:53:22 51°25.481 2°47.006 349.1 12.4 340 24.8
2006-06-08 05:53:27 51°25.497 2°46.997 348.7 12.4 341 24.4
2006-06-08 05:53:32 51°25.513 2°46.988 348.8 12.4 341 24.6
2006-06-08 05:53:38 51°25.532 2°46.977 348.7 12.4 340 23.6
2006-06-08 05:53:42 51°25.545 2°46.97 349.1 12.3 341 23.2
2006-06-08 05:53:46 51°25.558 2°46.962 349.1 12.3 341 24.4
2006-06-08 05:53:52 51°25.578 2°46.952 349 12.3 341 24.8
2006-06-08 05:53:56 51°25.59 2°46.944 349.1 12.3 341 24.6
2006-06-08 05:54:02 51°25.61 2°46.933 349.2 12.3 341 23.2
2006-06-08 05:54:08 51°25.629 2°46.922 349.2 12.3 340 22.1
2006-06-08 05:54:11 51°25.638 2°46.916 348.9 12.3 339 24
2006-06-08 05:54:16 51°25.655 2°46.907 348.3 12.3 340 24.5
2006-06-08 05:54:22 51°25.674 2°46.896 348 12.3 339 24.4
2006-06-08 05:54:28 51°25.693 2°46.884 347.8 12.3 340 24.5
2006-06-08 05:54:32 51°25.706 2°46.877 348.2 12.3 340 24.1
2006-06-08 05:54:38 51°25.725 2°46.866 348.7 12.3 341 23.9
2006-06-08 05:54:42 51°25.738 2°46.859 349.1 12.3 341 23.1
2006-06-08 05:54:48 51°25.757 2°46.849 349.9 12.3 342 22.4
2006-06-08 05:54:52 51°25.77 2°46.841 350.1 12.2 341 21.1
2006-06-08 05:54:56 51°25.783 2°46.834 349.8 12.3 341 20.5
2006-06-08 05:55:02 51°25.802 2°46.823 349.6 12.3 340 21.4
2006-06-08 05:55:07 51°25.818 2°46.814 349.2 12.2 340 21.8
2006-06-08 05:55:12 51°25.834 2°46.804 349.1 12.3 340 21.2
2006-06-08 05:55:17 51°25.85 2°46.795 349.4 12.3 341 21.8
2006-06-08 05:55:22 51°25.865 2°46.786 349.8 12.2 341 22.2
2006-06-08 05:55:27 51°25.881 2°46.777 350.3 12.2 342 22.9
2006-06-08 05:55:32 51°25.897 2°46.768 350.4 12.2 341 23
2006-06-08 05:55:38 51°25.917 2°46.758 350.2 12.3 341 23.2
2006-06-08 05:55:42 51°25.93 2°46.751 349.9 12.3 341 23.2
2006-06-08 05:55:47 51°25.946 2°46.741 349.7 12.3 341 23.6
2006-06-08 05:55:52 51°25.962 2°46.733 349.5 12.3 340 23.1
2006-06-08 05:55:58 51°25.981 2°46.722 349.3 12.3 340 22.4
2006-06-08 05:56:02 51°25.994 2°46.715 349.2 12.3 340 22
2006-06-08 05:56:08 51°26.014 2°46.703 349.2 12.3 340 23
2006-06-08 05:56:12 51°26.026 2°46.696 349.1 12.3 340 23.5
2006-06-08 05:56:17 51°26.042 2°46.686 349.3 12.3 341 24.1
2006-06-08 05:56:21 51°26.055 2°46.679 349.4 12.3 340 24.7
2006-06-08 05:56:27 51°26.074 2°46.667 349.2 12.3 340 24.7
2006-06-08 05:56:32 51°26.09 2°46.657 348.6 12.4 339 24.8
2006-06-08 05:56:36 51°26.103 2°46.649 348.3 12.4 339 25.2
2006-06-08 05:56:42 51°26.123 2°46.638 348.3 12.4 340 25.2
2006-06-08 05:56:47 51°26.139 2°46.63 349.3 12.3 341 24.9
2006-06-08 05:56:52 51°26.155 2°46.621 349.8 12.4 341 25
2006-06-08 05:56:57 51°26.172 2°46.612 350.3 12.4 341 25.2
2006-06-08 05:57:02 51°26.188 2°46.604 350.3 12.3 341 24.9
2006-06-08 05:57:07 51°26.204 2°46.594 350 12.4 341 24.2
2006-06-08 05:57:12 51°26.22 2°46.585 349.7 12.4 340 23.3
2006-06-08 05:57:17 51°26.236 2°46.576 349.6 12.4 340 22
2006-06-08 05:57:22 51°26.252 2°46.566 349.4 12.4 339 22.1
2006-06-08 05:57:27 51°26.268 2°46.556 348.8 12.4 339 23.6
2006-06-08 05:57:31 51°26.281 2°46.548 348 12.4 338 23.6
2006-06-08 05:57:37 51°26.301 2°46.536 347.9 12.4 339 23.1
2006-06-08 05:57:41 51°26.313 2°46.528 347.9 12.4 339 23.8
2006-06-08 05:57:47 51°26.333 2°46.517 348.3 12.4 340 25
2006-06-08 05:57:52 51°26.349 2°46.508 349.2 12.4 340 25.5
2006-06-08 05:57:56 51°26.362 2°46.5 349.7 12.4 341 25.5
2006-06-08 05:58:02 51°26.381 2°46.49 349.9 12.4 341 25.1
2006-06-08 05:58:07 51°26.398 2°46.48 350.3 12.4 340 24.5
2006-06-08 05:58:11 51°26.411 2°46.473 350 12.4 341 25.4
2006-06-08 05:58:17 51°26.43 2°46.462 350 12.5 340 25.9
2006-06-08 05:58:22 51°26.446 2°46.453 349.5 12.5 340 26.2
2006-06-08 05:58:27 51°26.462 2°46.444 349.8 12.4 341 26.3
2006-06-08 05:58:32 51°26.479 2°46.434 350.3 12.5 341 26.6
2006-06-08 05:58:36 51°26.492 2°46.427 350.2 12.5 341 26.7
2006-06-08 05:58:42 51°26.511 2°46.416 349.9 12.4 340 26.8
2006-06-08 05:58:47 51°26.527 2°46.407 349.7 12.4 340 26.8
2006-06-08 05:58:52 51°26.544 2°46.397 349.4 12.4 339 26.5
2006-06-08 05:58:57 51°26.56 2°46.388 349.1 12.5 340 26
2006-06-08 05:59:02 51°26.576 2°46.378 348.9 12.5 340 27
2006-06-08 05:59:07 51°26.592 2°46.368 348.7 12.5 340 27.6
2006-06-08 05:59:12 51°26.609 2°46.358 348.6 12.5 339 28
2006-06-08 05:59:16 51°26.622 2°46.35 348.5 12.6 339 28.5
2006-06-08 05:59:22 51°26.641 2°46.338 348.5 12.6 339 29
2006-06-08 05:59:27 51°26.658 2°46.329 348.4 12.6 340 29.5
2006-06-08 05:59:32 51°26.674 2°46.319 348.5 12.6 339 29.8
2006-06-08 05:59:35 51°26.684 2°46.313 348.6 12.5 340 29.9
2006-06-08 05:59:42 51°26.707 2°46.3 348.7 12.5 340 30.2
2006-06-08 05:59:47 51°26.723 2°46.291 349.1 12.5 340 30
2006-06-08 05:59:52 51°26.739 2°46.281 349.2 12.5 340 29.8
2006-06-08 05:59:56 51°26.752 2°46.274 349.1 12.6 340 29.6
2006-06-08 06:00:02 51°26.772 2°46.262 348.9 12.6 340 29.8
2006-06-08 06:00:07 51°26.788 2°46.253 349.1 12.6 340 30.1
2006-06-08 06:00:12 51°26.805 2°46.243 348.9 12.6 340 30.4
2006-06-08 06:00:17 51°26.821 2°46.233 348.8 12.6 340 30.5
2006-06-08 06:00:22 51°26.837 2°46.223 348.8 12.6 339 30
2006-06-08 06:00:27 51°26.854 2°46.213 348.8 12.6 339 29.1
2006-06-08 06:00:32 51°26.87 2°46.203 348.9 12.6 340 28.6
2006-06-08 06:00:36 51°26.883 2°46.196 349.2 12.6 340 29
2006-06-08 06:00:42 51°26.903 2°46.184 349.2 12.6 340 29.3
2006-06-08 06:00:47 51°26.919 2°46.175 349.5 12.6 340 29.4
2006-06-08 06:00:52 51°26.935 2°46.164 349.7 12.6 340 29.5
2006-06-08 06:00:56 51°26.949 2°46.157 349.7 12.6 340 30.1
2006-06-08 06:01:03 51°26.972 2°46.144 349.6 12.6 340 30.3
2006-06-08 06:01:08 51°26.988 2°46.134 349.7 12.7 340 30.4
2006-06-08 06:01:11 51°26.998 2°46.128 349.7 12.7 340 30.7
2006-06-08 06:01:17 51°27.018 2°46.117 349.7 12.7 340 30.4
2006-06-08 06:01:22 51°27.035 2°46.107 349.7 12.7 340 29.5
2006-06-08 06:01:27 51°27.051 2°46.097 349.8 12.7 340 29.6
2006-06-08 06:01:32 51°27.068 2°46.087 349.6 12.7 340 29.4
2006-06-08 06:01:36 51°27.081 2°46.079 349.4 12.7 339 29.4
2006-06-08 06:01:41 51°27.097 2°46.069 348.9 12.7 339 29.2
2006-06-08 06:01:47 51°27.117 2°46.056 348.3 12.7 338 29.2
2006-06-08 06:01:52 51°27.133 2°46.046 347.8 12.7 338 29
2006-06-08 06:01:56 51°27.146 2°46.037 347.6 12.8 338 29
2006-06-08 06:02:02 51°27.166 2°46.025 347.5 12.8 339 28.8
2006-06-08 06:02:07 51°27.183 2°46.015 347.8 12.7 339 28.9
2006-06-08 06:02:12 51°27.2 2°46.006 348.4 12.7 340 28.8
2006-06-08 06:02:17 51°27.216 2°45.996 349.4 12.7 340 28.9
2006-06-08 06:02:22 51°27.233 2°45.987 349.7 12.7 340 29
2006-06-08 06:02:27 51°27.249 2°45.978 349.8 12.7 341 28.9
2006-06-08 06:02:31 51°27.263 2°45.97 349.9 12.7 341 28.8
2006-06-08 06:02:36 51°27.279 2°45.96 349.8 12.7 340 28.8
2006-06-08 06:02:42 51°27.299 2°45.949 349.6 12.8 340 28.9
2006-06-08 06:02:47 51°27.316 2°45.94 349.2 12.8 340 29
2006-06-08 06:02:52 51°27.332 2°45.93 349.2 12.7 340 28.5
2006-06-08 06:02:57 51°27.349 2°45.92 349.2 12.8 340 28.3
2006-06-08 06:03:02 51°27.366 2°45.911 349.2 12.7 341 28.1
2006-06-08 06:03:07 51°27.382 2°45.901 349.5 12.8 340 28.1
2006-06-08 06:03:12 51°27.399 2°45.892 350 12.7 341 28
2006-06-08 06:03:17 51°27.415 2°45.882 350.1 12.7 340 28.1
2006-06-08 06:03:22 51°27.432 2°45.873 349.8 12.6 340 28.1
2006-06-08 06:03:27 51°27.449 2°45.863 349.7 12.6 339 27.9
2006-06-08 06:03:32 51°27.465 2°45.853 349.3 12.6 339 28.2
2006-06-08 06:03:36 51°27.478 2°45.845 349.2 12.6 339 28
2006-06-08 06:03:42 51°27.497 2°45.833 349.2 12.6 340 27.9
2006-06-08 06:03:47 51°27.514 2°45.823 349.1 12.5 340 28
2006-06-08 06:03:52 51°27.53 2°45.814 349.3 12.6 340 27.5
2006-06-08 06:03:57 51°27.546 2°45.804 349.4 12.6 340 27.8
2006-06-08 06:04:02 51°27.563 2°45.794 349.6 12.6 340 28
2006-06-08 06:04:07 51°27.579 2°45.785 349.8 12.6 340 27.8
2006-06-08 06:04:11 51°27.592 2°45.778 350 12.6 341 28.3
2006-06-08 06:04:17 51°27.612 2°45.766 350.2 12.5 340 27.8
2006-06-08 06:04:22 51°27.629 2°45.757 350.2 12.6 340 27.9
2006-06-08 06:04:27 51°27.645 2°45.747 350 12.6 339 27.6
2006-06-08 06:04:32 51°27.661 2°45.737 349.5 12.6 339 27.7
2006-06-08 06:04:37 51°27.678 2°45.727 349.1 12.6 339 27.2